�������l�o���
Date,Time,MP-1(��Sv/h),MP-2(��Sv/h),MP-3(��Sv/h),MP-4(��Sv/h),MP-5(��Sv/h),MP-6(��Sv/h),MP-7(��Sv/h),MP-8(��Sv/h),����,����(m/s),���J
2020/11/13,00:00,0.669,0.970,0.613,1.203,0.862,0.383,0.675,0.634,��쓌,4.2,��
2020/11/13,00:10,0.669,0.971,0.612,1.205,0.862,0.384,0.674,0.634,��쓌,4.0,��
2020/11/13,00:20,0.670,0.970,0.612,1.205,0.861,0.384,0.673,0.636,��,4.1,��
2020/11/13,00:30,0.670,0.972,0.614,1.206,0.862,0.384,0.675,0.633,��쓌,3.4,��
2020/11/13,00:40,0.670,0.970,0.613,1.204,0.863,0.383,0.674,0.635,��쓌,2.5,��
2020/11/13,00:50,0.670,0.970,0.612,1.203,0.863,0.384,0.676,0.635,��,3.0,��
2020/11/13,01:00,0.668,0.971,0.612,1.205,0.865,0.383,0.675,0.634,��,3.3,��
2020/11/13,01:10,0.670,0.970,0.613,1.205,0.862,0.383,0.674,0.634,��,4.1,��
2020/11/13,01:20,0.667,0.971,0.613,1.208,0.861,0.384,0.675,0.634,��,4.1,��
2020/11/13,01:30,0.668,0.968,0.613,1.205,0.862,0.384,0.673,0.635,��,3.4,��
2020/11/13,01:40,0.669,0.972,0.613,1.203,0.864,0.384,0.674,0.633,��,2.0,��
2020/11/13,01:50,0.668,0.972,0.614,1.204,0.862,0.384,0.675,0.634,��,2.6,��
2020/11/13,02:00,0.669,0.968,0.613,1.204,0.862,0.382,0.674,0.636,��,1.9,��
2020/11/13,02:10,0.669,0.968,0.616,1.206,0.863,0.385,0.675,0.634,��쐼,2.0,��
2020/11/13,02:20,0.669,0.971,0.613,1.205,0.862,0.386,0.674,0.634,��쐼,2.5,��
2020/11/13,02:30,0.669,0.971,0.612,1.206,0.864,0.385,0.675,0.634,��,3.0,��
2020/11/13,02:40,0.669,0.973,0.615,1.202,0.861,0.384,0.675,0.635,��,3.8,��
2020/11/13,02:50,0.670,0.971,0.613,1.204,0.862,0.384,0.677,0.634,��,4.2,��
2020/11/13,03:00,0.668,0.971,0.616,1.203,0.862,0.384,0.673,0.634,��,4.1,��
2020/11/13,03:10,0.671,0.969,0.614,1.205,0.862,0.384,0.675,0.634,��쓌,4.6,��
2020/11/13,03:20,0.667,0.971,0.613,1.203,0.863,0.385,0.674,0.634,��,5.5,��
2020/11/13,03:30,0.670,0.970,0.612,1.205,0.863,0.385,0.675,0.635,��,4.7,��
2020/11/13,03:40,0.669,0.969,0.612,1.202,0.862,0.385,0.673,0.634,��,4.4,��
2020/11/13,03:50,0.670,0.969,0.614,1.206,0.862,0.386,0.677,0.634,��쓌,3.4,��
2020/11/13,04:00,0.670,0.969,0.614,1.205,0.862,0.384,0.673,0.634,��쓌,4.7,��
2020/11/13,04:10,0.671,0.969,0.612,1.204,0.861,0.384,0.675,0.634,��쓌,5.5,��
2020/11/13,04:20,0.670,0.971,0.614,1.205,0.865,0.385,0.672,0.634,��쓌,4.7,��
2020/11/13,04:30,0.668,0.969,0.614,1.205,0.862,0.384,0.674,0.635,��,4.4,��
2020/11/13,04:40,0.668,0.970,0.612,1.203,0.861,0.385,0.675,0.634,��,3.5,��
2020/11/13,04:50,0.670,0.970,0.614,1.204,0.862,0.384,0.675,0.635,��,3.7,��
2020/11/13,05:00,0.669,0.970,0.614,1.202,0.861,0.384,0.673,0.635,��쓌,3.9,��
2020/11/13,05:10,0.668,0.971,0.614,1.206,0.859,0.384,0.675,0.636,��,3.1,��
2020/11/13,05:20,0.670,0.967,0.613,1.203,0.860,0.384,0.676,0.634,��,3.8,��
2020/11/13,05:30,0.667,0.969,0.614,1.203,0.861,0.384,0.674,0.635,��,4.0,��
2020/11/13,05:40,0.670,0.968,0.613,1.204,0.862,0.385,0.676,0.635,��,4.2,��
2020/11/13,05:50,0.668,0.969,0.613,1.205,0.862,0.384,0.673,0.634,��쓌,4.8,��
2020/11/13,06:00,0.670,0.970,0.613,1.205,0.863,0.385,0.674,0.636,��,5.2,��
2020/11/13,06:10,0.670,0.970,0.613,1.204,0.862,0.383,0.675,0.636,��,4.8,��
2020/11/13,06:20,0.671,0.967,0.614,1.204,0.860,0.384,0.674,0.633,��쓌,4.4,��
2020/11/13,06:30,0.670,0.968,0.614,1.203,0.862,0.384,0.674,0.634,��쓌,4.5,��
2020/11/13,06:40,0.669,0.969,0.613,1.204,0.862,0.383,0.675,0.634,��쓌,4.7,��
2020/11/13,06:50,0.669,0.969,0.612,1.203,0.862,0.383,0.678,0.634,�쓌,3.4,��
2020/11/13,07:00,0.669,0.971,0.612,1.204,0.861,0.384,0.676,0.635,��쓌,3.2,��
2020/11/13,07:10,0.669,0.970,0.612,1.204,0.864,0.386,0.675,0.636,��쓌,2.0,��
2020/11/13,07:20,0.669,0.970,0.613,1.205,0.861,0.384,0.676,0.635,�쓌,1.2,��
2020/11/13,07:30,0.670,0.971,0.613,1.205,0.862,0.385,0.676,0.634,��,1.4,��
2020/11/13,07:40,0.671,0.971,0.613,1.203,0.862,0.386,0.677,0.635,��,0.8,��
2020/11/13,07:50,0.671,0.972,0.612,1.206,0.862,0.383,0.677,0.635,-,CALM,��
2020/11/13,08:00,0.670,0.970,0.613,1.204,0.863,0.385,0.677,0.633,�k��,0.6,��
2020/11/13,08:10,0.672,0.970,0.613,1.206,0.864,0.385,0.676,0.636,-,CALM,��
2020/11/13,08:20,0.671,0.970,0.615,1.205,0.862,0.385,0.677,0.637,-,CALM,��
2020/11/13,08:30,0.672,0.969,0.614,1.203,0.861,0.385,0.677,0.635,-,CALM,��
2020/11/13,08:40,0.672,0.970,0.615,1.206,0.863,0.385,0.678,0.635,-,CALM,��
2020/11/13,08:50,0.668,0.968,0.615,1.206,0.864,0.386,0.678,0.636,�k�k��,0.9,��
2020/11/13,09:00,0.672,0.971,0.612,1.204,0.863,0.387,0.677,0.636,�k�k��,1.2,��
2020/11/13,09:10,0.673,0.969,0.614,1.206,0.864,0.386,0.675,0.636,��,0.6,��
2020/11/13,09:20,0.674,0.969,0.616,1.205,0.864,0.386,0.677,0.636,-,CALM,��
2020/11/13,09:30,0.675,0.968,0.615,1.205,0.863,0.386,0.675,0.636,-,CALM,��
2020/11/13,09:40,0.673,0.965,0.615,1.204,0.862,0.386,0.677,0.636,-,CALM,��
2020/11/13,09:50,0.673,0.964,0.616,1.208,0.864,0.388,0.677,0.636,���k��,1.2,��
2020/11/13,10:00,0.672,0.966,0.615,1.207,0.864,0.387,0.676,0.636,�k�k��,1.5,��
2020/11/13,10:10,0.671,0.969,0.614,1.206,0.864,0.386,0.673,0.637,�k��,1.7,��
2020/11/13,10:20,0.672,0.966,0.616,1.205,0.863,0.387,0.673,0.637,���k��,1.5,��
2020/11/13,10:30,0.671,0.967,0.616,1.208,0.864,0.384,0.673,0.637,���k��,1.7,��
2020/11/13,10:40,0.673,0.966,0.615,1.206,0.865,0.384,-,0.638,���k��,1.5,��
2020/11/13,10:50,0.672,0.966,0.615,1.205,0.864,0.383,-,0.637,��,1.5,��
2020/11/13,11:00,0.674,0.968,0.616,1.207,0.863,0.384,-,0.636,��,1.7,��
2020/11/13,11:10,0.670,0.970,0.616,1.206,0.864,0.385,-,0.636,���쓌,0.6,��
2020/11/13,11:20,0.674,0.969,0.615,1.205,0.864,0.385,-,0.638,�쓌,1.7,��
2020/11/13,11:30,0.673,0.972,0.615,1.206,0.865,0.384,-,0.638,���쓌,1.4,��
2020/11/13,11:40,0.675,0.972,0.615,1.207,0.863,0.385,-,0.637,�쓌,2.2,��
2020/11/13,11:50,0.674,0.975,0.614,1.206,0.863,0.386,-,0.636,���k��,2.2,��
2020/11/13,12:00,0.674,0.973,0.616,1.205,0.863,0.387,-,0.637,�k��,1.5,��
2020/11/13,12:10,0.674,0.972,0.616,1.206,0.863,0.385,0.675,0.637,�쓌,1.7,��
2020/11/13,12:20,0.673,0.973,0.616,1.207,0.866,0.386,0.676,0.637,��,1.5,��
2020/11/13,12:30,0.674,0.972,0.616,1.208,0.863,0.387,0.677,0.637,���k��,1.5,��
2020/11/13,12:40,0.674,0.972,0.614,1.209,0.863,0.386,0.677,0.634,���k��,1.7,��
2020/11/13,12:50,0.673,0.974,0.614,1.208,0.864,0.386,0.677,0.635,���k��,2.2,��
2020/11/13,13:00,0.674,0.970,0.614,1.207,0.864,0.385,0.677,0.634,���k��,2.3,��
2020/11/13,13:10,0.673,0.970,0.614,1.204,0.866,0.386,0.677,0.636,���k��,2.2,��
2020/11/13,13:20,0.675,0.969,0.615,1.206,0.864,0.386,0.675,0.633,���k��,2.0,��
2020/11/13,13:30,0.675,0.972,0.613,1.208,0.864,0.385,0.677,0.634,���쓌,1.7,��
2020/11/13,13:40,0.672,0.970,0.614,1.206,0.864,0.386,0.675,0.634,��,1.5,��
2020/11/13,13:50,0.674,0.970,0.614,1.208,0.864,0.386,0.678,0.635,�k��,2.0,��
2020/11/13,14:00,0.673,0.970,0.614,1.206,0.864,0.386,0.677,0.634,��,1.7,��
2020/11/13,14:10,0.675,0.970,0.613,1.204,0.862,0.385,0.677,0.635,��,1.5,��
2020/11/13,14:20,0.674,0.971,0.614,1.207,0.863,0.385,0.678,0.636,��,1.7,��
2020/11/13,14:30,0.674,0.970,0.616,1.207,0.865,0.386,0.678,0.635,���쓌,0.9,��
2020/11/13,14:40,0.675,0.971,0.612,1.208,0.863,0.385,0.678,0.633,�쓌,1.7,��
2020/11/13,14:50,0.674,0.971,0.616,1.206,0.864,0.385,0.678,0.635,��쓌,1.9,��
2020/11/13,15:00,0.672,0.972,0.614,1.206,0.864,0.385,0.678,0.633,�쓌,1.7,��
2020/11/13,15:10,0.672,0.974,0.615,1.208,0.863,0.386,0.678,0.633,���쓌,1.2,��
2020/11/13,15:20,0.673,0.975,0.613,1.207,0.863,0.384,0.679,0.634,�쓌,2.0,��
2020/11/13,15:30,0.674,0.975,0.613,1.205,0.863,0.385,0.678,0.637,�쓌,2.2,��
2020/11/13,15:40,0.673,0.975,0.613,1.207,0.862,0.387,0.678,0.637,�쓌,3.1,��
2020/11/13,15:50,0.674,0.976,0.613,1.208,0.864,0.387,0.677,0.637,��쓌,4.1,��
2020/11/13,16:00,0.671,0.977,0.615,1.207,0.864,0.386,0.677,0.638,��쓌,3.7,��
2020/11/13,16:10,0.672,0.975,0.616,1.206,0.862,0.388,0.678,0.637,��쓌,4.0,��
2020/11/13,16:20,0.674,0.977,0.617,1.207,0.863,0.388,0.679,0.637,��쓌,2.6,��
2020/11/13,16:30,0.674,0.976,0.615,1.205,0.862,0.387,0.679,0.636,��쓌,3.5,��
2020/11/13,16:40,0.673,0.975,0.616,1.207,0.862,0.387,0.677,0.636,��쓌,3.3,��
2020/11/13,16:50,0.674,0.975,0.616,1.206,0.864,0.387,0.678,0.637,��,3.0,��
2020/11/13,17:00,0.675,0.976,0.615,1.205,0.864,0.388,0.679,0.637,��,3.2,��
2020/11/13,17:10,0.677,0.974,0.616,1.205,0.862,0.387,0.677,0.639,�쐼,2.0,��
2020/11/13,17:20,0.677,0.975,0.616,1.208,0.865,0.386,0.677,0.638,���쐼,1.7,��
2020/11/13,17:30,0.675,0.975,0.615,1.208,0.864,0.386,0.679,0.636,��,1.4,��
2020/11/13,17:40,0.673,0.977,0.615,1.207,0.865,0.387,0.679,0.636,���k��,1.7,��
2020/11/13,17:50,0.673,0.975,0.616,1.207,0.866,0.387,0.678,0.637,�k�k��,2.3,��
2020/11/13,18:00,0.675,0.976,0.616,1.205,0.867,0.386,0.678,0.637,�k,1.9,��
2020/11/13,18:10,0.673,0.975,0.615,1.206,0.866,0.386,0.679,0.636,�k,1.7,��
2020/11/13,18:20,0.672,0.972,0.615,1.209,0.865,0.387,0.679,0.636,�k�k��,1.9,��
2020/11/13,18:30,0.674,0.975,0.614,1.206,0.863,0.387,0.678,0.636,�k��,2.0,��
2020/11/13,18:40,0.673,0.973,0.617,1.206,0.867,0.387,0.679,0.637,�k�k��,2.6,��
2020/11/13,18:50,0.675,0.973,0.616,1.204,0.865,0.385,0.678,0.636,�k�k��,2.6,��
2020/11/13,19:00,0.674,0.973,0.617,1.205,0.866,0.386,0.679,0.635,�k,2.5,��
2020/11/13,19:10,0.674,0.973,0.614,1.207,0.867,0.386,0.678,0.636,�k��,3.8,��
2020/11/13,19:20,0.678,0.972,0.616,1.207,0.864,0.385,0.677,0.635,��,5.6,��
2020/11/13,19:30,0.674,0.975,0.616,1.204,0.865,0.387,0.679,0.636,��,9.3,��
2020/11/13,19:40,0.675,0.972,0.617,1.207,0.865,0.386,0.679,0.637,���쐼,7.4,��
2020/11/13,19:50,0.673,0.973,0.616,1.209,0.864,0.385,0.680,0.635,��,5.3,��
2020/11/13,20:00,0.675,0.973,0.617,1.206,0.867,0.386,0.679,0.636,��,6.9,��
2020/11/13,20:10,0.675,0.972,0.616,1.205,0.865,0.386,0.678,0.636,��,6.9,��
2020/11/13,20:20,0.675,0.975,0.616,1.206,0.864,0.385,0.679,0.637,��,3.4,��
2020/11/13,20:30,0.673,0.974,0.618,1.208,0.866,0.386,0.679,0.638,�k��,1.9,��
2020/11/13,20:40,0.674,0.973,0.616,1.204,0.861,0.387,0.678,0.636,�k,2.0,��
2020/11/13,20:50,0.674,0.972,0.616,1.209,0.865,0.386,0.679,0.636,�k�k��,1.5,��
2020/11/13,21:00,0.674,0.974,0.616,1.205,0.863,0.387,0.679,0.636,�k��,2.6,��
2020/11/13,21:10,0.674,0.972,0.616,1.205,0.864,0.386,0.678,0.635,��,2.3,��
2020/11/13,21:20,0.675,0.972,0.617,1.207,0.864,0.387,0.678,0.636,�k��,3.0,��
2020/11/13,21:30,0.675,0.972,0.617,1.204,0.863,0.388,0.679,0.635,�k�k��,0.6,��
2020/11/13,21:40,0.674,0.975,0.616,1.206,0.864,0.387,0.680,0.636,���k��,1.9,��
2020/11/13,21:50,0.673,0.975,0.615,1.206,0.864,0.386,0.679,0.635,��,2.0,��
2020/11/13,22:00,0.674,0.973,0.615,1.206,0.862,0.387,0.679,0.636,��,2.6,��
2020/11/13,22:10,0.673,0.972,0.617,1.206,0.865,0.386,0.679,0.636,���쐼,1.7,��
2020/11/13,22:20,0.674,0.974,0.615,1.206,0.865,0.387,0.678,0.639,�쐼,1.9,��
2020/11/13,22:30,0.673,0.971,0.617,1.207,0.866,0.387,0.678,0.636,���쐼,1.7,��
2020/11/13,22:40,0.674,0.973,0.616,1.205,0.864,0.385,0.679,0.635,��,2.0,��
2020/11/13,22:50,0.674,0.973,0.615,1.206,0.864,0.387,0.678,0.636,��,2.3,��
2020/11/13,23:00,0.676,0.972,0.616,1.204,0.865,0.387,0.680,0.637,���k��,4.4,��
2020/11/13,23:10,0.674,0.974,0.616,1.204,0.864,0.386,0.679,0.635,���k��,4.6,��
2020/11/13,23:20,0.674,0.972,0.615,1.205,0.863,0.386,0.679,0.634,���k��,4.8,��
2020/11/13,23:30,0.673,0.972,0.615,1.204,0.863,0.386,0.679,0.637,�k��,4.3,��
2020/11/13,23:40,0.673,0.973,0.615,1.205,0.862,0.386,0.679,0.636,�k��,4.1,��
2020/11/13,23:50,0.676,0.973,0.616,1.202,0.863,0.387,0.680,0.636,���k��,6.3,��
